MOLNIYA 1-71

Last updated on Sun Jun 25 2023 00:03:02 GMT+0000 (Coordinated Universal Time)

1 18946U 88017A 23174.76588495 .00000119 00000+0 -23880-3 0 9996 2 18946 63.2923 72.2157 7340214 256.5752 19.2886 2.00670726258540
UTC large
Height (km)
Speed (km/s)
/
Latitude / Longitude
Inclination (degrees)
Orbital Period (minutes)
Azimuth
Elevation
Range (km)
Doppler Factor

Next 0 passes for location: London (51.5072 / 0.1276)

Sorry there are no passes over London.